Regional Weather Roundup
Issued by NWS

Home | Current Version | Previous Version | Graphics & Text | Print | Product List | Glossary On
Versions: 1 2 3 4 5 6 7 8 9 10 11 12 13 14 15 16 17 18 19 20 21 22 23 24 25 26 27 28 29 30 31 32 33 34 35 36 37 38 39 40 41 42 43 44 45 46 47 48 49 50
000
ASUS45 KCYS 281910
RWRWY

WYOMING REGIONAL WEATHER ROUNDUP
NATIONAL WEATHER SERVICE CHEYENNE WY
100 PM MDT TUE JUL 28 2015

NOTE:  "FAIR" INDICATES FEW OR NO CLOUDS BELOW 12,000 FEET
WITH NO SIGNIFICANT WEATHER AND/OR OBSTRUCTIONS TO VISIBILITY.

WYZ001-282000-
YELLOWSTONE NATIONAL PARK

CITY           SKY/WX    TMP DP  RH WIND       PRES   REMARKS
LK YELLOWSTONE   N/A     47  31  53 NW5       30.40R
W YELLOWSTONE  NOT AVBL

$$
WYZ002>013-054>058-071-098>099-282000-
NORTHERN WYOMING

CITY           SKY/WX    TMP DP  RH WIND       PRES   REMARKS
JACKSON        FAIR      57  28  33 S5        30.34S
CODY           FAIR      63  30  29 W16G30    30.22R
GREYBULL       FAIR      70  29  21 VRB3      30.15S
WORLAND        FAIR      72  28  19 N13G21    30.16S
SHERIDAN       CLOUDY    66  37  34 NW24G33   30.12R
BUFFALO        FAIR      68  37  32 N21G29    30.16S
GILLETTE       FAIR      69  36  29 NW20G30   30.11R
HULETT         FAIR      66  37  34 NW18G32   30.09R
NEWCASTLE      FAIR      70  34  26 NW18G25   30.10S

$$
WYZ014>020-022>026-101>103-282000-
CENTRAL WYOMING

CITY           SKY/WX    TMP DP  RH WIND       PRES   REMARKS
BIG PINEY      FAIR      62  22  21 NW13      30.34F
PINEDALE       FAIR      59  25  27 NW13G24   30.34F
DUBOIS         FAIR      55  27  33 N24G30    30.30F
LANDER         FAIR      69  27  20 SE5       30.21F
RIVERTON       FAIR      70  20  15 W13G23    30.21S
CASPER         FAIR      72  20  14 W18G31    30.18S
DOUGLAS        FAIR      73  22  14 W18G37    30.16S

$$
WYZ021-027>030-104>119-282000-
SOUTHERN WYOMING

CITY           SKY/WX    TMP DP  RH WIND       PRES   REMARKS
EVANSTON       FAIR      65  16  15 W15G21    30.35F
KEMMERER       FAIR      61  19  20 NW17      30.36S
FORT BRIDGER   CLEAR     66  16  14 NW16      30.37F
ROCK SPRINGS   FAIR      64  20  18 W9G24     30.33S
DIXON          FAIR      68  27  21 S6        30.33F
RAWLINS        FAIR      67  18  15 W24G32    30.30S
SARATOGA       FAIR      68  25  19 W21G26    30.32S
LARAMIE        FAIR      71  26  18 W18G24    30.27S
CHEYENNE       FAIR      77  29  17 N16G26    30.18F
TORRINGTON     FAIR      77  24  14 NW13G21   30.11F
PINE BLUFFS    FAIR      79  28  15 N18G28    30.15F

$$


USA.gov is the U.S. government's official web portal to all federal, state and local government web resources and services.